OneWeb SL0687

operational
NORAD ID: 61595 Int'l Des: 2024-188 Owner: ONEWEBE Country: UK Constellation: oneweb
LEOCIRCULARPOLARONEWEB_TYPE

OneWeb SL0687について

説明を読み込み中...

リアルタイム位置

3D地球を読み込み中...

次回通過

高度履歴

Altitude vs Time

uPlot chart will show altitude changes over time

軌道要素

1 61595U 24188B 26033.52000130 -.00000202 00000-0 -55441-3 0 9992
2 61595 87.9081 32.6455 0002385 87.8928 272.2477 13.17648931 68161
Epoch: Feb 2, 2026 • Age: 19 hours

現在のステータス

高度 1205.2 km
速度 7.26 km/s
衛星直下点 78.39°N, 162.68°E
打ち上げ日 Oct 20, 2024
運用期間 1.2 years
タイプ internet

技術仕様

分類 Payload
質量 148.00 kg
乾燥質量 140.00 kg
総質量 148.00 kg
長さ 1.30 m
直径 1.00 m
スパン 5.00 m
形状 Trapezoid+2 pan
製造者 ONEWUS
バスタイプ ARROW
フェーズステータス In Orbit
所有者/国 ONEWEBE/UK

大規模コンステレーション

Loading constellations...